Regional Weather Roundup
Issued by NWS New Orleans/Baton Rouge, LA

Home | Current Version | Previous Version | Text Only | Print | Product List | Glossary Off
Versions: 1 2 3 4 5 6 7 8 9 10 11 12 13 14 15 16 17 18 19 20 21 22 23 24 25 26 27 28 29 30 31 32 33 34 35 36 37 38 39 40 41 42 43 44 45 46 47 48 49 50

615
ASUS44 KLIX 161801
RWRLIX
NEW ORLEANS REGIONAL WEATHER ROUNDUP
NATIONAL WEATHER SERVICE NEW ORLEANS LA
100 PM CDT TUE SEP 16 2014

NOTE: "FAIR" INDICATES FEW OR NO CLOUDS BELOW 12,000 FEET WITH NO
      SIGNIFICANT WEATHER AND/OR OBSTRUCTIONS TO VISIBILITY.
      SKY/WX - SKY CONDITION AND SIGNIFICANT WEATHER.
      TMP - AIR TEMPERATURE.     DP    - DEWPOINT TEMPERATURE.
      RH  - RELATIVE HUMIDITY.   PRES  - PRESSURE.
      HI  - HEAT INDEX.          WCI   - WIND CHILL INDEX.

*  THESE STATIONS ARE NOT NWS OR FAA STATIONS AND ARE NOT UNDER
   NWS QUALITY CONTROL.

LAZ038-040-048-061>063-065>067-069-161900-
SOUTHEAST LOUISIANA

CITY           SKY/WX    TMP DP  RH WIND       PRES   REMARKS
N.O. AUDUBON   NOT AVBL
N.O. INTL ARPT PTSUNNY   85  75  72 S10       30.05S
6HR MIN TEMP:  76; 6HR MAX TEMP:  89;

N.O. LAKEFRONT PTSUNNY   83  71  67 S10       30.05F
6HR MIN TEMP:  81; 6HR MAX TEMP:  88;

N.O. DOWNTOWN* MOCLDY    82  70  65 SE7       30.06S
6HR MIN TEMP:  81; 6HR MAX TEMP:  88;

SLIDELL        PTSUNNY   88  73  61 NE3       30.03F HX  95
6HR MIN TEMP:  73; 6HR MAX TEMP:  89;

BATON ROUGE    PTSUNNY   89  75  63 E5        30.03F HX  99
6HR MIN TEMP:  73; 6HR MAX TEMP:  90;

BOOTHVILLE     PTSUNNY   83  77  82 SW9       30.07S
6HR MIN TEMP:  78; 6HR MAX TEMP:  85;

BELLE CHASSE   PTSUNNY   79  73  82 SE3       30.04F
6HR MIN TEMP:  74; 6HR MAX TEMP:  88;

BOGALUSA*        N/A     89  72  57 CALM      30.05F HX  96
6HR MIN TEMP:  73; 6HR MAX TEMP:  90;

GALLIANO*      NOT AVBL
NEW ROADS*     MOCLDY    87  75  68 NE3       30.03F HX  96
6HR MIN TEMP:  72; 6HR MAX TEMP:  88;

GONZALES*        N/A     90  76  64 CALM      30.03F HX 101
6HR MIN TEMP:  73; 6HR MAX TEMP:  90;

HAMMOND*       NOT AVBL
HOUMA*         NOT AVBL
PORT FOURCHON* NOT AVBL

$$

MSZ070-080>082-161900-
SOUTHERN MISSISSIPPI

CITY           SKY/WX    TMP DP  RH WIND       PRES   REMARKS
MCCOMB         MOSUNNY   90  69  50 NE7       30.05F
6HR MIN TEMP:  76; 6HR MAX TEMP:  90;

GULFPORT       PTSUNNY   87  74  64 S8        30.03F THUNDER HX  95
6HR MIN TEMP:  74; 6HR MAX TEMP:  90;

BILOXI         PTSUNNY   89  75  63 S9        30.03F HX  98
6HR MIN TEMP:  75; 6HR MAX TEMP:  90;

PASCAGOULA     PTSUNNY   88  74  63 VRB3      30.03F HX  96
6HR MIN TEMP:  74; 6HR MAX TEMP:  89;

STENNIS ARPT*  PTSUNNY   88  70  55 VRB5      30.03F

$$

COASTAL OBSERVATIONS
LAKE AND NEARSHORE STATIONS

STATION/POSITION TIME  TEMP    WIND        PRES    WAVE
                       AIR SEA DIR/SP/G            HT/PER
                 (UTC) (F)     (DEG/KT/KT) (MB)    (FT/S)
PASCAGOULA       1700   83     200/  9/ 11 1016.8
WAVELAND YACHT   1700   82     170/  6/  8 1016.7
GRAND ISLE       1700   82 85  210/  4/  6 1018.8
SOUTHWEST PASS   1700   81 90  210/  8/ 11 1018.6
NEW CANAL        1700   83 83   10/  4/  5 1018.2
SHELL BEACH      1700   83 79   20/  2/  4 1017.6

OFFSHORE STATIONS

STATION/POSITION TIME  TEMP    WIND        PRES    WAVE
                       AIR SEA DIR/SP/G            HT/PER
                 (UTC) (F)     (DEG/KT/KT) (MB)    (FT/S)
64 S DAUPHIN ISL 1727   74 85   30/ 12/ 14 1018.7    3/ 5

$$




USA.gov is the U.S. government's official web portal to all federal, state and local government web resources and services.